Regional Weather Roundup
Issued by NWS

Home | Current Version | Previous Version | Graphics & Text | Print | Product List | Glossary On
Versions: 1 2 3 4 5 6 7 8 9 10 11 12 13 14 15 16 17 18 19 20 21 22 23 24 25 26 27 28 29 30 31 32 33 34 35 36 37 38 39 40 41 42 43 44 45 46 47 48 49 50
000
ASUS43 KLOT 190603
RWRIL

ILLINOIS REGIONAL WEATHER ROUNDUP
NATIONAL WEATHER SERVICE CHICAGO/ROMEOVILLE IL
100 AM CDT THU APR 19 2018

NOTE: "FAIR" INDICATES FEW OR NO CLOUDS BELOW 12,000 FEET WITH NO
SIGNIFICANT WEATHER AND/OR OBSTRUCTIONS TO VISIBILITY.

* THESE STATIONS ARE NOT UNDER NWS QUALITY CONTROL. THEY ALSO MAY NOT
  REPORT WEATHER SUCH AS PRECIPITATION OR FOG.

ILZ001-002-007-009-015-016-024-190700-
NORTHWEST ILLINOIS

CITY           SKY/WX    TMP DP  RH WIND       PRES   REMARKS
MOLINE         CLOUDY    33  31  92 NW14      30.10R WCI  23
6HR MIN TEMP:  33; 6HR MAX TEMP:  34; 6HR PCP: TRACE;

STERLING*      LGT SNOW  32  31  96 NW13      30.07R FOG     WCI  22
SAVANNA*       FLURRIES  33  31  92 NW14      30.09R WCI  23
$$

ILZ003-004-008-010-011-017-018-190700-
NORTH CENTRAL ILLINOIS

CITY           SKY/WX    TMP DP  RH WIND       PRES   REMARKS
ROCKFORD       CLOUDY    33  30  88 N14       30.06R WCI  23
6HR MIN TEMP:  32; 6HR MAX TEMP:  33; 6HR PCP:  0.10;

FREEPORT*      CLOUDY    32  31  96 N9        30.08R WCI  24
ROCHELLE*      LGT SNOW  32  31  98 N12       30.04R WCI  23
DE KALB*       LGT SNOW  32  32  99 NW14      30.01R WCI  22
PERU*          CLOUDY    34  33  93 NW15      30.05R WCI  25
$$

ILZ005-006-012>014-019>023-190700-
NORTHEAST ILLINOIS

CITY           SKY/WX    TMP DP  RH WIND       PRES   REMARKS
CHICAGO-OHARE  LGT SNOW  32  32 100 N10       29.98R FOG     WCI  24
6HR MIN TEMP:  32; 6HR MAX TEMP:  33;

CHICAGO-MIDWAY LGT SNOW  33  33 100 NW10      29.98R FOG     WCI  25
6HR MIN TEMP:  33; 6HR MAX TEMP:  35; 6HR PCP:  0.07;

AURORA         LGT SNOW  33  31  92 NW16      30.00R FOG     WCI  23
6HR MIN TEMP:  32; 6HR MAX TEMP:  33; 6HR PCP:  0.03;

LANSING*       LGT SNOW  32  32 100 NW8       29.96R VSB 3/4 WCI  25
JOLIET*        LGT SNOW  33  33  99 NW6       29.99R WCI  28
WAUKEGAN       LGT SNOW  33  32  96 N13       30.00R FOG     WCI  24
6HR MIN TEMP:  33; 6HR MAX TEMP:  34; 6HR PCP:  0.11;

DUPAGE AIRPORT LGT SNOW  33  32  96 N12       29.99R FOG     WCI  24
6HR MIN TEMP:  32; 6HR MAX TEMP:  33; 6HR PCP:  0.06;

KANKAKEE*      LGT RAIN  33  32  96 NW13G20   29.98R WCI  24
WHEELING       MIX PCPN  34  33  96 N9        30.01R FOG     WCI  27
6HR MIN TEMP:  33; 6HR MAX TEMP:  34; 6HR PCP:  0.03;

MORRIS*        LGT SNOW  32  31  97 NW10      30.00R WCI  24
ROMEOVILLE*    LGT SNOW  32  32  99 NW10      29.99R WCI  24
NORTHERLY ISL    N/A     34  33  96 N18         N/A  WCI  23
$$

LMZ740>746-190700-
SOUTHERN LAKE MICHIGAN

STATION/POSITION SKY/WX   TEMP    WIND        PRES    VSBY  WAVE
                          AIR SEA DIR/SP/G                  HT/PER
                          (F)     (DEG/KT/KT) (MB)    (MI)  (FT/S)
HARRISON CRIB              36      10/ 19/ 22   N/A
BURNHAM HARBOR             34     360/ 13/ 17   N/A
CALUMET HARBOR             34     330/ 11/ 17 1013.7
BURNS HARBOR               34      10/ 17/ 20 1014.2R
MICHIGAN CITY              34      10/ 23/ 25   N/A
$$

ILZ025>027-034>036-040-047-049-050-058-095>099-190700-
WEST-CENTRAL ILLINOIS

CITY           SKY/WX    TMP DP  RH WIND       PRES   REMARKS
QUINCY         CLOUDY    34  27  75 NW16      30.14R WCI  24
MACOMB*        CLOUDY    33  28  83 NW14      30.14R WCI  23
JACKSONVILLE*  CLOUDY    34  27  76 NW15G26   30.12R WCI  24
PITTSFIELD*    CLOUDY    36  29  76 NW13G18   30.14R WCI  27
$$

ILZ028>032-037-038-041>044-048-051>054-059>061-190700-
CENTRAL ILLINOIS

CITY           SKY/WX    TMP DP  RH WIND       PRES   REMARKS
PONTIAC        CLOUDY    33  33  99 NW14G22   30.03R WCI  23
BLOOMINGTON    CLOUDY    32  30  92 NW15G25   30.04R WCI  22
DECATUR        MOCLDY    34  29  82 NW15      30.06R WCI  24
PEORIA         CLOUDY    34  29  82 VRB7      30.08R WCI  28
6HR MIN TEMP:  34; 6HR MAX TEMP:  37; 6HR PCP: TRACE;

LACON*         LGT RAIN  32  31  95 NW13G18   30.06R WCI  23
LINCOLN*       CLOUDY    35  32  89 NW10G17   30.08R WCI  27
SPRINGFIELD    CLOUDY    36  30  79 NW13G23   30.10R WCI  27
6HR MIN TEMP:  36; 6HR MAX TEMP:  41; 6HR PCP: TRACE;

TAYLORVILLE    CLOUDY    35  28  74 NW18G25   30.09R WCI  24
6HR MIN TEMP:  35; 6HR MAX TEMP:  41;

$$

ILZ033-039-045-046-055>057-062-063-190700-
EAST-CENTRAL ILLINOIS

CITY           SKY/WX    TMP DP  RH WIND       PRES   REMARKS
CHAMPAIGN      FLURRIES  34  32  92 NW15      30.02R WCI  24
DANVILLE*      CLOUDY    34  31  91 NW14G21   29.96R WCI  24
RANTOUL*       CLOUDY    36  33  90 NW15      30.01R WCI  26
MATTOON        LGT SNOW  34  31  88 NW18      30.03R FOG     WCI  23
PARIS*         CLOUDY    35  32  90 W18G24    30.02R WCI  24
$$

ILZ079-100>102-190700-
SOUTHWEST ILLINOIS

CITY           SKY/WX    TMP DP  RH WIND       PRES   REMARKS
BELLEVILLE     CLOUDY    40  24  52 NW16G29   30.11R
CAHOKIA*       CLOUDY    40  22  48 NW20G31   30.13R
SPARTA*        CLOUDY    40  28  62 NW17G23   30.12R
$$

ILZ064>066-069>071-074>076-080>082-084>086-088>090-092>094-190700-
SOUTH-CENTRAL ILLINOIS

CITY           SKY/WX    TMP DP  RH WIND       PRES   REMARKS
CARBONDALE     CLOUDY    42  25  50 NW16G36   30.10R
6HR MIN TEMP:  42; 6HR MAX TEMP:  57;

CAIRO*         CLOUDY    46  31  56 NW21G26   30.10R
EFFINGHAM*     CLOUDY    38  30  75 W18G26    30.08R WCI  28
MARION         CLOUDY    42  25  50 NW8G23    30.10R
MT. VERNON     CLOUDY    40  28  62 NW9G21    30.09R
CENTRALIA*     CLOUDY    40  28  62 NW20G28   30.09R
SALEM*         CLOUDY    40  27  58 NW17G29   30.09R
METROPOLIS*    CLOUDY    46  31  55 NW16G25   30.08R
$$

ILZ067-068-072-073-078-083-087-091-190700-
SOUTHEAST ILLINOIS

CITY           SKY/WX    TMP DP  RH WIND       PRES   REMARKS
LAWRENCEVILLE  CLOUDY    41  29  62 NW17      30.04R
FLORA*         CLOUDY    41  29  64 NW17G23   30.07R
FAIRFIELD*     CLOUDY    40  29  64 NW5       30.07R
HARRISBURG*    CLOUDY    43  29  59 NW20G26   30.08R
ROBINSON*      CLOUDY    37  29  72 NW20      30.05R WCI  27
CARMI*         CLOUDY    42  31  64 NW17G30   30.06R
$$

ABBREVIATIONS USED IN REMARKS
   TC - TEMPERATURE IN CELSIUS
  WCI - WIND CHILL INDEX
   HX - HEAT INDEX
  VSB - VISIBILITY
$$





USA.gov is the U.S. government's official web portal to all federal, state and local government web resources and services.